QTR1015 VABB-ZSSS

Flight info

Callsign QTR1015
Flight time N/A
Altitude 35000
Route ANOL2AXNONEN/27 ANOLI2A NONEN Q19 NITAG/N0468F370 Q19 SEBMA A791 CEA B465 CTG A599 LINSO/K0850S1190 A599 SGM A581 WHA R343 SASAN SAS62A
Aircraft E190/M-SDE1E2E3FGHIJ3J4J7P2RWXY/LB1D1G1

Departure

Time 2026-05-05 05:37
Airport Chhatrapati Shivaji Maharaj International Airport (VABB)

Arrival

Time N/A
Airport Shanghai Hongqiao International Airport (ZSSS)
Time Latitude Longitude Altitude Speed Heading
2026-05-05 05:08 19.09200 72.86145 34 ft 0 kts 43°
2026-05-05 05:23 19.09195 72.86140 34 ft 2 kts 43°
2026-05-05 05:23 19.09184 72.86130 33 ft 2 kts 43°
2026-05-05 05:23 19.09173 72.86119 33 ft 1 kts 51°
2026-05-05 05:23 19.09169 72.86104 33 ft 2 kts 100°
2026-05-05 05:24 19.09173 72.86093 33 ft 0 kts 130°
2026-05-05 05:24 19.09179 72.86088 33 ft 1 kts 134°
2026-05-05 05:24 19.09179 72.86087 33 ft 0 kts 134°
2026-05-05 05:29 19.09174 72.86093 33 ft 2 kts 134°
2026-05-05 05:29 19.09153 72.86115 33 ft 5 kts 133°
2026-05-05 05:29 19.09120 72.86153 32 ft 8 kts 133°
2026-05-05 05:29 19.09069 72.86208 31 ft 12 kts 134°
2026-05-05 05:30 19.09035 72.86293 31 ft 13 kts 90°
2026-05-05 05:30 19.09036 72.86395 31 ft 14 kts 90°
2026-05-05 05:30 19.09036 72.86423 31 ft 0 kts 90°
2026-05-05 05:30 19.09036 72.86431 31 ft 1 kts 88°
2026-05-05 05:31 19.09037 72.86437 31 ft 0 kts 88°
2026-05-05 05:32 19.09037 72.86439 31 ft 1 kts 88°
2026-05-05 05:32 19.09038 72.86463 31 ft 5 kts 88°
2026-05-05 05:32 19.09039 72.86519 30 ft 9 kts 89°
2026-05-05 05:32 19.09040 72.86604 30 ft 13 kts 90°
2026-05-05 05:33 19.09042 72.86714 30 ft 16 kts 89°
2026-05-05 05:33 19.09043 72.86846 30 ft 19 kts 89°
2026-05-05 05:33 19.09046 72.87013 28 ft 25 kts 86°
2026-05-05 05:33 19.09050 72.87205 28 ft 26 kts 90°
2026-05-05 05:34 19.09054 72.87397 28 ft 26 kts 89°
2026-05-05 05:34 19.09056 72.87590 28 ft 26 kts 90°
2026-05-05 05:34 19.09057 72.87721 29 ft 11 kts 89°
2026-05-05 05:34 19.09041 72.87800 30 ft 11 kts 127°
2026-05-05 05:35 19.08969 72.87811 30 ft 11 kts 184°
2026-05-05 05:35 19.08896 72.87781 29 ft 11 kts 236°
2026-05-05 05:35 19.08883 72.87689 28 ft 13 kts 271°
2026-05-05 05:35 19.08884 72.87667 27 ft 1 kts 270°
2026-05-05 05:36 19.08883 72.87636 27 ft 17 kts 269°
2026-05-05 05:36 19.08874 72.87246 25 ft 83 kts 269°
2026-05-05 05:36 19.08865 72.86478 33 ft 132 kts 269°
2026-05-05 05:36 19.08836 72.85403 40 ft 168 kts 265°
2026-05-05 05:37 19.08819 72.84145 333 ft 176 kts 271°
2026-05-05 05:37 19.08839 72.82720 298 ft 214 kts 268°
2026-05-05 05:37 19.08812 72.81120 977 ft 219 kts 268°
2026-05-05 05:37 19.08787 72.79560 1913 ft 213 kts 268°
2026-05-05 05:38 19.08759 72.78037 2797 ft 209 kts 268°
2026-05-05 05:38 19.08813 72.76471 3256 ft 227 kts 287°
2026-05-05 05:38 19.09756 72.75044 3521 ft 255 kts 325°
2026-05-05 05:38 19.11494 72.74466 3958 ft 275 kts
2026-05-05 05:39 19.13434 72.74610 4701 ft 280 kts
2026-05-05 05:39 19.15365 72.74635 5567 ft 280 kts 359°
2026-05-05 05:39 19.17296 72.74590 6425 ft 279 kts 358°
2026-05-05 05:39 19.19274 72.74509 7177 ft 282 kts 358°
2026-05-05 05:40 19.21245 72.74414 7844 ft 288 kts 358°
2026-05-05 05:40 19.23274 72.74307 8492 ft 293 kts 358°
2026-05-05 05:40 19.25354 72.74194 9157 ft 297 kts 358°
2026-05-05 05:40 19.27440 72.74080 9761 ft 294 kts 358°
2026-05-05 05:41 19.29516 72.74114 9858 ft 299 kts 15°
2026-05-05 05:41 19.31362 72.75146 10004 ft 307 kts 42°
2026-05-05 05:41 19.32994 72.76636 10612 ft 311 kts 42°
2026-05-05 05:41 19.34649 72.78162 11264 ft 315 kts 42°
2026-05-05 05:42 19.36308 72.79702 11812 ft 321 kts 43°
2026-05-05 05:42 19.38005 72.81281 12299 ft 330 kts 42°
2026-05-05 05:42 19.39736 72.82895 12826 ft 336 kts 43°
2026-05-05 05:42 19.41525 72.84563 13421 ft 340 kts 42°
2026-05-05 05:43 19.43298 72.86217 14062 ft 342 kts 41°
2026-05-05 05:43 19.45076 72.87891 14705 ft 343 kts 45°
2026-05-05 05:43 19.46381 72.90004 15278 ft 346 kts 71°
2026-05-05 05:43 19.46958 72.92464 15847 ft 349 kts 76°
2026-05-05 05:44 19.47478 72.94981 16358 ft 353 kts 76°
2026-05-05 05:44 19.47997 72.97507 16843 ft 358 kts 76°
2026-05-05 05:44 19.48519 73.00049 17360 ft 361 kts 76°
2026-05-05 05:44 19.49050 73.02639 17870 ft 365 kts 76°
2026-05-05 05:45 19.49583 73.05246 18379 ft 368 kts 76°
2026-05-05 05:45 19.50144 73.07939 18859 ft 371 kts 75°
2026-05-05 05:45 19.50715 73.10635 19352 ft 375 kts 75°
2026-05-05 05:45 19.51291 73.13358 19801 ft 379 kts 75°
2026-05-05 05:46 19.51882 73.16150 20255 ft 382 kts 75°
2026-05-05 05:46 19.52470 73.18933 20708 ft 386 kts 74°
2026-05-05 05:46 19.53059 73.21719 21144 ft 388 kts 74°
2026-05-05 05:46 19.53651 73.24526 21560 ft 392 kts 74°
2026-05-05 05:47 19.54246 73.27350 21939 ft 395 kts 74°
2026-05-05 05:47 19.54858 73.30253 22331 ft 398 kts 74°
2026-05-05 05:47 19.55463 73.33126 22721 ft 402 kts 74°
2026-05-05 05:47 19.56061 73.36063 23100 ft 406 kts 78°
2026-05-05 05:48 19.56395 73.39076 23462 ft 410 kts 81°
2026-05-05 05:48 19.56694 73.42116 23837 ft 413 kts 81°
2026-05-05 05:48 19.56997 73.45179 24199 ft 416 kts 82°
2026-05-05 05:48 19.57298 73.48233 24553 ft 419 kts 82°
2026-05-05 05:49 19.57605 73.51345 24913 ft 421 kts 82°
2026-05-05 05:49 19.57912 73.54457 25266 ft 424 kts 82°
2026-05-05 05:49 19.58219 73.57588 25587 ft 427 kts 82°
2026-05-05 05:49 19.58530 73.60757 25916 ft 429 kts 82°
2026-05-05 05:50 19.58838 73.63903 26223 ft 432 kts 82°
2026-05-05 05:50 19.59168 73.67080 26532 ft 433 kts 78°
2026-05-05 05:50 19.60149 73.70078 26786 ft 431 kts 60°
2026-05-05 05:50 19.61555 73.72897 27094 ft 433 kts 60°
2026-05-05 05:51 19.62978 73.75723 27382 ft 435 kts 60°
2026-05-05 05:51 19.64422 73.78584 27643 ft 438 kts 60°
2026-05-05 05:51 19.65872 73.81458 27917 ft 440 kts 60°
2026-05-05 05:51 19.67341 73.84370 28179 ft 443 kts 60°
2026-05-05 05:52 19.68761 73.87187 28432 ft 445 kts 60°
2026-05-05 05:52 19.70229 73.90100 28727 ft 447 kts 60°
2026-05-05 05:52 19.71706 73.93034 29004 ft 449 kts 60°
2026-05-05 05:52 19.73173 73.95948 29294 ft 451 kts 60°